Date,TemperatureHighF,TemperatureAvgF,TemperatureLowF,DewpointHighF,DewpointAvgF,DewpointLowF,HumidityHigh,HumidityAvg,HumidityLow,PressureMaxIn,PressureMinIn,WindSpeedMaxMPH,WindSpeedAvgMPH,GustSpeedMaxMPH,PrecipitationSumIn
2013-1-1,40.5,36.8,34.5,38.1,35.3,32.9,98,94,87,29.86,29.24,24,2,24,0.00
2013-1-2,50.0,44.1,38.1,49.5,43.3,36.1,98,97,92,29.98,29.86,28,9,28,0.17
2013-1-3,50.4,49.0,46.9,49.8,48.1,45.3,98,96,94,30.34,29.98,33,12,33,0.00
2013-1-4,50.2,48.3,46.8,48.9,47.0,44.8,98,95,88,30.43,30.34,25,11,27,0.00
2013-1-5,49.1,47.9,45.1,47.8,46.2,43.9,97,94,89,30.43,30.25,22,8,22,0.03
2013-1-6,49.1,43.7,40.8,45.9,43.0,39.7,98,97,94,30.40,30.16,18,4,18,0.00
2013-1-7,47.7,46.9,46.4,47.1,46.4,45.7,98,98,97,30.16,29.98,14,3,15,0.33
2013-1-8,50.5,46.2,39.4,50.0,45.4,38.7,98,97,93,30.10,29.95,23,6,23,0.17
2013-1-9,42.3,38.7,36.1,41.7,38.1,35.6,98,98,97,30.13,30.01,17,-28,18,0.01
2013-1-10,40.5,37.5,34.3,39.9,36.9,33.8,98,98,98,30.01,29.92,9,3,9,0.04
2013-1-11,39.9,38.0,35.4,39.4,37.5,34.9,98,98,98,29.98,29.92,9,2,9,0.00
2013-1-12,38.1,35.6,33.4,35.8,33.9,31.5,98,93,85,30.10,29.92,13,4,13,0.00
2013-1-13,35.4,33.8,32.9,34.9,32.9,31.1,98,97,92,30.10,29.92,10,3,10,0.07
2013-1-14,36.3,34.6,31.6,35.8,32.8,28.2,98,93,80,29.92,29.72,13,4,13,0.08
2013-1-15,34.3,32.1,26.4,33.6,30.7,25.0,97,95,90,29.89,29.78,9,-1,10,0.04
2013-1-16,32.0,28.4,25.0,29.8,27.2,23.7,98,95,93,29.95,29.81,4,1,4,0.00
2013-1-17,34.3,32.0,30.2,29.5,26.0,22.6,93,79,64,29.95,29.81,19,4,24,0.00
2013-1-18,33.6,32.2,30.4,31.8,25.8,21.7,97,77,65,29.81,29.54,24,10,24,0.00
2013-1-19,35.8,33.5,31.1,32.7,29.9,25.9,97,87,74,29.72,29.57,26,7,26,0.00
2013-1-20,34.2,33.3,32.0,28.0,26.4,23.7,81,76,67,29.69,29.54,20,8,20,0.02
2013-1-21,34.5,33.7,33.1,33.1,31.6,26.6,98,92,73,29.54,29.48,40,14,40,0.24
2013-1-22,35.2,34.4,33.3,34.2,33.1,31.8,98,95,90,29.81,29.51,28,8,30,0.46
2013-1-23,35.1,33.0,31.6,34.0,32.2,30.4,98,97,94,29.92,29.81,9,3,9,0.02
2013-1-24,36.3,33.6,32.0,35.4,31.3,27.7,98,92,76,30.04,29.92,11,2,13,0.03
2013-1-25,34.5,33.4,32.7,33.3,30.9,27.3,98,91,77,29.92,29.36,15,3,19,0.02
2013-1-26,41.7,35.5,32.2,41.0,34.5,31.6,98,97,89,29.54,28.95,20,7,23,0.91
2013-1-27,44.6,38.9,36.0,43.9,37.5,30.0,98,94,85,29.16,28.74,33,14,36,0.72
2013-1-28,43.9,39.7,36.1,43.2,37.6,34.2,98,92,80,29.30,28.83,32,14,32,0.34
2013-1-29,49.1,43.5,41.4,48.6,41.0,34.5,98,91,71,29.30,28.92,36,12,38,0.52
2013-1-30,42.8,40.5,37.0,38.7,35.0,28.6,96,81,59,29.60,29.07,48,18,50,0.11
2013-1-31,40.8,38.9,37.0,39.6,37.2,34.3,97,94,86,29.63,29.18,29,10,33,0.43
2013-2-1,42.4,37.4,32.9,40.6,34.2,27.1,98,88,74,29.78,29.33,23,9,26,0.06
2013-2-2,37.9,33.5,30.6,30.9,25.9,21.9,88,74,53,30.13,29.78,16,6,18,0.00
2013-2-3,47.3,42.2,34.3,46.0,39.3,30.6,98,90,70,29.98,29.42,36,14,37,0.05
2013-2-4,47.1,36.8,31.1,46.6,33.2,28.6,98,87,66,29.51,29.27,38,17,48,0.20
2013-2-5,40.5,35.4,30.0,37.6,32.2,28.6,97,89,68,29.54,29.01,32,14,33,0.02
2013-2-6,39.2,36.2,34.3,31.6,26.0,21.9,76,66,57,30.07,29.54,33,13,33,0.00
2013-2-7,38.5,34.6,31.3,31.6,27.8,22.1,87,76,59,30.07,29.95,18,4,19,0.00
2013-2-8,41.5,37.1,32.7,35.2,31.7,28.9,95,81,65,30.13,30.01,19,5,19,0.03
2013-2-9,39.4,37.9,36.9,38.5,36.3,33.8,98,94,87,30.10,29.81,11,3,11,0.07
2013-2-10,37.6,36.6,35.4,36.5,33.7,29.8,96,89,76,29.81,29.42,24,9,26,0.17
2013-2-11,39.2,36.5,35.1,35.8,29.6,24.3,96,77,61,29.92,29.48,24,9,24,0.09
2013-2-12,37.2,35.5,34.2,28.8,27.2,25.9,78,72,65,30.07,29.92,15,6,15,0.00
2013-2-13,38.7,34.4,31.6,38.1,30.9,22.8,98,87,64,30.04,29.51,21,5,21,0.69
2013-2-14,45.0,41.1,37.9,43.0,39.6,37.4,98,95,85,29.78,29.51,25,10,26,0.12
2013-2-15,46.4,40.1,36.5,42.4,38.2,35.6,98,93,80,30.07,29.78,18,6,20,0.00
2013-2-16,45.9,40.5,35.2,44.4,39.5,34.2,98,96,93,30.10,30.04,13,3,17,0.00
2013-2-17,46.6,41.6,33.6,41.9,37.5,30.7,95,86,67,30.10,30.04,13,2,13,0.00
2013-2-18,42.1,34.8,30.2,38.3,31.6,28.8,97,88,73,30.10,30.04,6,1,7,0.00
2013-2-19,40.1,35.4,28.8,38.1,32.9,26.2,98,91,81,30.13,30.07,10,3,10,0.00
2013-2-20,41.2,38.4,33.3,39.2,33.8,25.0,98,84,67,30.31,30.13,18,7,18,0.00
2013-2-21,36.7,34.4,32.5,26.2,23.5,20.7,74,64,56,30.31,30.25,17,6,17,0.00
2013-2-22,36.1,34.0,32.7,23.9,21.2,18.9,67,59,55,30.31,30.25,13,3,13,0.00
2013-2-23,44.4,34.5,31.6,30.9,25.2,21.6,88,69,52,30.37,30.22,12,3,12,0.00
2013-2-24,44.4,35.6,31.6,35.6,32.4,28.8,94,88,74,30.45,30.37,13,3,13,0.11
2013-2-25,42.1,34.8,29.7,36.9,32.2,28.6,97,90,72,30.60,30.45,9,2,9,0.00
2013-2-26,42.8,36.4,31.5,38.3,33.6,30.4,98,90,66,30.66,30.60,11,3,11,0.00
2013-2-27,43.5,34.7,27.5,38.5,32.1,26.6,98,91,77,30.66,30.54,8,3,9,0.00
2013-2-28,46.0,37.5,30.2,43.9,35.4,29.3,98,93,84,30.54,30.48,9,3,9,0.00
2013-3-1,44.6,38.8,34.0,37.6,33.2,29.8,92,81,64,30.51,30.40,10,2,10,0.00
2013-3-2,49.8,41.4,32.5,43.3,36.3,30.4,96,83,65,30.40,30.22,15,5,15,0.00
2013-3-3,47.8,43.4,41.0,42.8,38.3,34.7,93,82,71,30.25,30.07,10,2,10,0.00
2013-3-4,44.6,40.5,33.8,34.7,32.5,30.0,86,73,59,30.07,29.72,11,3,11,0.00
2013-3-5,45.3,37.0,31.5,37.0,31.9,28.9,95,83,58,29.72,29.63,10,2,11,0.00
2013-3-6,40.6,38.3,36.1,38.5,36.1,32.9,97,92,88,29.72,29.66,15,6,15,0.00
2013-3-7,41.5,39.9,38.8,41.0,39.2,36.9,98,97,91,29.66,29.57,25,10,26,0.18
2013-3-8,39.2,38.0,36.9,37.9,37.0,35.6,98,96,88,29.72,29.60,26,12,27,0.29
2013-3-9,38.3,36.3,34.5,36.9,32.8,23.9,98,88,65,29.92,29.72,24,11,26,0.17
2013-3-10,37.4,32.4,27.0,32.4,25.5,20.1,93,76,58,30.10,29.89,29,10,36,0.06
2013-3-11,34.0,27.9,23.2,23.7,18.7,12.7,89,69,51,30.13,30.10,26,8,27,0.03
2013-3-12,41.0,32.4,22.8,27.0,22.0,13.5,75,66,55,30.10,29.86,17,6,17,0.09
2013-3-13,40.5,34.7,29.3,25.9,22.4,14.5,74,61,46,29.95,29.83,18,6,18,0.00
2013-3-14,42.4,35.5,28.4,37.8,30.5,19.9,96,82,69,29.95,29.57,18,5,18,0.07
2013-3-15,46.8,40.3,28.6,42.1,36.1,14.5,96,85,55,29.57,29.36,19,6,19,0.05
2013-3-16,36.7,34.5,31.5,36.1,33.4,28.9,98,96,88,29.36,29.16,17,4,17,0.11
2013-3-17,40.6,37.0,32.7,39.4,35.7,32.0,98,95,82,29.27,29.13,25,6,25,0.32
2013-3-18,38.7,35.4,31.8,38.1,34.3,30.6,98,96,90,29.54,29.27,27,12,30,0.20
2013-3-19,34.2,33.2,32.0,33.4,32.4,30.4,98,97,92,29.66,29.54,24,11,26,0.12
2013-3-20,39.4,34.6,32.5,33.6,31.3,27.1,98,88,64,30.04,29.66,18,7,20,0.44
2013-3-21,39.6,34.3,29.5,32.7,28.2,23.9,97,79,57,30.07,30.01,26,8,26,0.22
2013-3-22,37.9,34.1,33.1,31.1,27.3,24.6,88,76,68,30.04,29.98,36,18,37,0.04
2013-3-23,34.0,33.3,32.5,28.9,24.9,21.0,83,71,61,30.19,30.04,34,18,35,0.01
2013-3-24,35.8,33.7,32.7,25.0,21.7,19.4,70,61,52,30.28,30.19,31,15,34,0.00
2013-3-25,36.9,34.1,32.9,27.3,22.9,19.6,78,63,55,30.28,30.22,30,11,30,0.02
2013-3-26,37.4,33.7,30.9,29.7,25.1,19.6,89,71,58,30.25,30.16,25,7,25,0.06
2013-3-27,39.2,33.2,29.5,31.6,26.8,22.3,90,78,55,30.16,30.07,19,6,21,0.13
2013-3-28,40.8,35.6,31.5,31.5,26.1,22.1,92,70,50,30.10,30.04,20,6,20,0.17
2013-3-29,39.6,34.4,29.5,33.3,25.7,20.7,83,71,51,30.04,29.89,15,5,15,0.06
2013-3-30,40.6,33.0,26.6,28.9,23.1,19.6,84,68,50,30.01,29.92,9,2,9,0.00
2013-3-31,40.6,33.2,24.4,27.7,22.1,19.4,88,65,45,30.01,29.98,16,4,16,0.00
2013-4-1,40.8,34.5,26.6,24.4,21.3,19.0,76,59,49,30.07,29.98,18,6,20,0.00
2013-4-2,43.0,37.0,31.1,31.3,24.8,20.1,83,62,46,30.22,30.07,15,5,15,0.00
2013-4-3,44.4,36.7,28.0,33.4,26.3,20.7,91,67,49,30.28,30.22,11,3,13,0.00
2013-4-4,46.2,39.6,33.6,34.2,27.8,22.1,86,64,39,30.28,30.22,20,7,20,0.00
2013-4-5,45.3,38.9,32.9,34.0,26.3,21.2,88,62,47,30.25,30.19,15,5,17,0.00
2013-4-6,48.6,38.4,29.3,33.8,26.8,21.6,79,64,46,30.25,30.16,17,5,17,0.00
2013-4-7,37.8,36.4,34.9,35.6,32.9,27.7,96,87,69,30.16,29.98,13,5,15,0.00
2013-4-8,42.4,37.6,34.7,34.2,28.2,21.2,95,71,48,29.98,29.75,21,8,23,0.02
2013-4-9,44.6,38.6,33.8,33.6,25.9,20.1,85,61,47,29.75,29.66,24,1,24,0.00
2013-4-10,42.4,38.5,35.4,39.4,34.9,30.7,94,87,80,29.72,29.60,16,6,16,0.06
2013-4-11,45.1,39.8,35.6,37.4,34.2,30.4,96,81,67,29.60,29.42,17,6,17,0.00
2013-4-12,45.0,40.0,36.3,36.7,34.3,30.4,93,80,66,29.63,29.39,14,6,14,0.00
2013-4-13,53.1,45.0,38.1,45.5,37.6,34.0,92,77,51,29.72,29.45,17,5,20,0.03
2013-4-14,56.3,52.1,48.4,51.3,47.2,43.7,95,84,68,29.48,29.36,33,14,36,0.10
2013-4-15,57.9,51.2,47.5,48.9,43.9,38.8,92,77,53,29.72,29.45,32,12,33,0.08
2013-4-16,51.8,48.4,42.8,45.3,39.9,32.5,86,73,52,29.78,29.33,47,18,47,0.05
2013-4-17,51.1,44.7,38.7,49.8,41.5,33.4,98,88,73,29.81,29.07,30,9,32,0.39
2013-4-18,52.2,47.4,43.9,46.2,41.8,33.6,98,81,63,29.86,29.07,35,15,40,0.09
2013-4-19,54.5,45.6,37.0,35.2,31.8,28.4,77,59,46,30.40,29.86,17,6,18,0.00
2013-4-20,57.0,47.2,37.0,42.3,35.6,31.3,87,65,47,30.40,30.10,24,8,24,0.00
2013-4-21,53.1,46.9,40.6,46.0,40.1,34.7,87,78,55,30.10,29.81,27,9,28,0.02
2013-4-22,55.0,46.7,39.4,49.1,40.0,35.8,93,78,52,29.81,29.51,39,14,39,0.00
2013-4-23,54.3,48.6,44.2,42.6,38.8,34.3,90,70,50,30.01,29.66,36,12,36,0.01
2013-4-24,54.5,49.0,43.5,50.0,39.5,29.3,98,72,46,30.19,29.86,23,8,24,0.38
2013-4-25,52.2,45.1,39.6,41.9,35.9,31.5,85,71,54,30.16,29.98,24,7,26,0.00
2013-4-26,49.3,41.4,35.4,38.3,33.8,29.3,89,75,50,29.98,29.81,27,7,27,0.26
2013-4-27,51.1,43.7,37.2,36.1,30.2,25.7,89,61,41,30.10,29.92,20,8,20,0.00
2013-4-28,53.8,45.1,38.3,45.1,36.3,30.6,95,72,54,29.92,29.54,32,14,32,0.00
2013-4-29,52.9,45.1,37.8,38.1,33.4,29.8,89,66,43,30.04,29.54,40,15,44,0.00
2013-4-30,55.4,45.9,35.2,33.3,30.4,27.9,78,57,36,30.28,30.04,20,6,20,0.00
2013-5-1,55.4,47.3,40.5,48.7,35.0,29.1,92,64,41,30.25,30.07,26,9,27,0.00
2013-5-2,56.1,46.8,36.0,43.7,35.8,30.0,86,67,43,30.25,29.95,22,6,22,0.02
2013-5-3,54.0,49.2,41.7,50.5,46.2,37.0,96,89,83,29.95,29.63,27,11,27,0.55
2013-5-4,53.6,45.1,36.5,41.4,37.4,33.3,89,75,51,29.83,29.66,29,11,29,0.00
2013-5-5,59.7,53.2,46.8,52.7,47.3,40.6,88,81,65,30.01,29.83,25,9,26,0.00
2013-5-6,58.5,52.6,48.0,52.3,48.1,44.4,93,85,76,30.04,29.98,15,6,16,0.00
2013-5-7,64.4,53.9,42.3,49.3,43.6,39.6,93,70,47,30.04,29.86,15,4,15,0.00
2013-5-8,54.5,49.3,46.6,49.5,45.3,39.9,98,86,67,29.86,29.48,20,8,23,0.09
2013-5-9,55.9,47.8,42.6,44.8,40.7,33.4,97,78,47,29.51,29.36,19,6,19,0.21
2013-5-10,57.4,48.8,42.6,47.8,43.4,38.5,98,83,57,29.60,29.36,24,8,25,0.07
2013-5-11,53.4,47.2,41.0,48.7,42.3,37.6,95,83,69,29.69,29.45,28,8,28,0.04
2013-5-12,52.2,47.6,41.7,49.5,43.0,35.8,94,84,67,29.75,29.54,33,8,33,0.06
2013-5-13,48.7,42.6,36.3,43.5,38.1,33.4,95,84,72,29.57,29.39,34,11,34,0.27
2013-5-14,53.1,45.6,39.4,42.6,38.8,34.3,93,78,60,29.39,29.33,31,10,31,0.03
2013-5-15,53.8,45.4,37.9,44.8,37.5,33.8,87,75,52,29.39,29.27,20,5,22,0.12
2013-5-16,56.3,47.1,37.2,43.0,37.5,33.8,93,71,46,29.69,29.36,15,6,15,0.00
2013-5-17,59.7,50.7,40.6,40.6,37.5,34.5,91,63,41,29.86,29.69,15,4,15,0.00
2013-5-18,56.7,52.8,50.2,54.1,48.8,38.3,98,87,67,29.83,29.72,32,9,32,0.65
2013-5-19,60.1,52.2,48.2,58.8,51.5,47.7,98,97,94,29.95,29.81,13,3,13,0.08
2013-5-20,70.5,60.1,52.5,63.1,57.6,51.3,98,92,74,30.01,29.89,15,3,15,0.29
2013-5-21,60.4,54.1,47.3,51.6,44.8,41.2,96,72,51,30.07,30.01,15,4,15,0.00
2013-5-22,62.1,50.9,41.7,60.1,35.6,29.3,93,58,35,30.07,29.98,33,10,33,0.00
2013-5-23,62.1,44.8,39.2,32.5,29.9,28.0,69,56,47,29.98,29.86,33,14,33,0.00
2013-5-24,55.0,48.7,42.4,39.6,34.5,28.8,79,59,43,30.19,29.89,25,9,27,0.00
2013-5-25,62.1,52.5,39.6,45.7,38.2,31.6,89,61,39,30.19,30.10,18,5,18,0.00
2013-5-26,62.6,54.1,44.1,49.5,41.8,34.2,78,63,52,30.10,29.75,18,6,18,0.00
2013-5-27,55.4,50.9,47.5,44.1,42.4,36.5,82,73,61,29.75,29.45,24,10,28,0.00
2013-5-28,56.7,51.6,46.0,45.5,43.1,39.0,89,73,54,29.78,29.51,17,7,19,0.00
2013-5-29,63.0,54.8,44.1,51.8,44.9,39.7,87,70,57,29.89,29.78,16,6,16,0.00
2013-5-30,63.9,58.0,52.9,49.8,44.4,37.9,79,61,50,30.07,29.86,19,7,20,0.00
2013-5-31,68.0,57.5,48.0,52.7,46.4,38.1,90,68,47,30.16,30.04,21,5,26,0.00
2013-6-1,63.3,54.4,46.9,46.8,41.0,34.5,80,62,46,30.25,30.16,19,6,19,0.00
2013-6-2,62.6,53.2,41.7,41.4,38.4,34.5,80,59,45,30.40,30.25,13,4,13,0.00
2013-6-3,68.9,58.1,46.0,54.9,48.1,39.9,84,70,53,30.48,30.40,10,3,10,0.00
2013-6-4,66.4,59.9,53.1,50.7,45.8,41.5,82,61,46,30.48,30.31,13,5,14,0.00
2013-6-5,60.6,54.2,49.1,51.4,48.0,43.7,92,80,67,30.31,30.16,14,4,14,0.04
2013-6-6,62.8,55.8,49.3,51.1,47.6,44.8,93,75,53,30.25,30.16,15,4,15,0.00
2013-6-7,59.4,53.3,47.1,50.5,45.9,42.1,91,77,58,30.34,30.25,13,4,14,0.00
2013-6-8,67.1,56.4,45.5,48.7,44.9,40.6,86,67,45,30.31,30.13,19,5,20,0.00
2013-6-9,61.2,54.1,49.6,49.6,48.2,43.7,95,81,62,30.13,30.01,16,7,16,0.07
2013-6-10,59.2,52.9,48.6,48.9,46.7,43.9,94,80,67,30.01,29.89,13,6,13,0.00
2013-6-11,61.9,54.2,46.9,53.4,48.9,43.9,96,83,56,29.92,29.69,13,5,13,0.04
2013-6-12,65.8,58.0,52.2,59.9,52.1,45.3,98,82,64,29.69,29.57,19,5,21,0.20
2013-6-13,64.4,56.0,48.7,50.4,43.7,39.0,88,65,47,29.75,29.54,29,7,29,0.00
2013-6-14,64.8,56.3,47.3,49.1,45.7,41.4,89,69,53,29.78,29.60,24,6,24,0.09
2013-6-15,58.1,53.1,49.6,50.2,46.5,41.7,93,79,59,29.60,29.42,23,7,23,0.12
2013-6-16,67.5,56.3,47.1,54.7,48.0,42.6,97,76,51,29.98,29.54,11,4,11,0.01
2013-6-17,66.0,57.8,51.3,53.6,50.2,46.6,91,77,57,30.04,29.98,13,4,13,0.00
2013-6-18,68.5,60.1,53.6,57.0,52.6,48.4,93,77,56,30.04,29.89,12,3,12,0.00
2013-6-19,65.3,59.0,52.9,51.3,46.1,42.3,84,64,46,30.01,29.92,23,6,24,0.00
2013-6-20,68.5,60.4,51.4,54.7,48.8,43.3,80,67,49,30.01,29.78,15,5,15,0.00
2013-6-21,67.1,61.3,57.4,58.8,53.4,43.9,93,76,54,29.81,29.60,13,3,15,0.06
2013-6-22,62.2,56.6,52.0,57.2,51.0,46.8,92,82,70,29.60,29.30,19,5,23,0.25
2013-6-23,61.5,55.4,48.9,55.8,48.7,41.0,94,79,60,29.89,29.33,30,10,31,0.24
2013-6-24,62.2,56.0,49.6,46.4,41.7,37.9,79,60,47,30.22,29.89,21,7,23,0.00
2013-6-25,63.7,56.5,46.6,48.4,44.4,38.3,79,65,51,30.37,30.22,13,4,13,0.00
2013-6-26,65.7,58.1,50.5,49.3,44.7,41.4,88,63,43,30.40,30.34,15,4,15,0.00
2013-6-27,64.2,56.9,50.2,57.2,50.9,44.4,89,81,74,30.40,30.10,13,4,14,0.03
2013-6-28,65.7,58.0,51.6,58.6,52.8,41.5,96,84,62,30.10,29.86,23,8,25,0.13
2013-6-29,63.5,55.8,49.1,54.1,47.5,41.7,91,74,55,30.10,30.01,18,6,20,0.00
2013-6-30,66.6,58.9,52.9,56.5,52.0,45.3,91,78,63,30.07,29.83,31,9,31,0.00
2013-7-1,63.3,56.3,48.9,49.6,43.4,36.3,89,64,45,29.86,29.81,22,7,22,0.00
2013-7-2,56.8,53.8,49.8,53.6,48.9,39.9,95,84,68,29.86,29.42,18,4,19,0.35
2013-7-3,64.8,59.5,54.7,57.4,53.8,49.8,97,82,65,29.81,29.45,13,4,18,0.00
2013-7-4,65.7,60.0,54.5,63.0,53.1,45.0,96,79,61,30.10,29.69,28,8,28,0.31
2013-7-5,66.6,59.5,53.4,54.9,51.1,46.2,91,74,61,30.34,30.10,22,6,22,0.00
2013-7-6,71.2,62.8,51.4,55.8,51.9,48.6,92,70,49,30.40,30.28,18,5,18,0.00
2013-7-7,72.9,65.4,57.7,59.2,55.1,51.6,88,71,48,30.60,30.40,13,4,13,0.00
2013-7-8,72.5,64.6,56.3,61.9,57.7,53.1,93,79,65,30.60,30.45,10,3,11,0.00
2013-7-9,79.9,69.0,58.3,64.2,58.3,54.0,91,71,46,30.45,30.34,17,5,17,0.00
2013-7-10,64.8,59.6,56.3,55.4,53.7,51.3,90,81,69,30.40,30.34,13,5,13,0.00
2013-7-11,73.2,62.2,55.4,63.3,56.7,52.5,94,83,68,30.37,30.25,11,3,11,0.00
2013-7-12,79.2,69.7,57.6,65.5,58.7,54.7,95,70,49,30.25,30.19,17,4,17,0.00
2013-7-13,76.1,64.0,56.7,61.5,56.6,53.6,90,78,53,30.31,30.22,15,5,15,0.00
2013-7-14,71.1,63.1,55.8,57.7,51.6,42.8,94,69,47,30.31,30.13,20,5,20,0.00
2013-7-15,69.6,62.4,54.5,57.0,52.7,45.1,87,71,59,30.16,30.13,19,7,23,0.00
2013-7-16,73.4,66.9,60.1,62.2,57.1,53.1,91,72,53,30.22,30.16,16,6,19,0.00
2013-7-17,73.9,66.6,57.0,60.3,54.7,51.8,91,68,47,30.31,30.22,22,5,22,0.00
2013-7-18,80.4,70.4,61.0,64.8,59.4,54.9,89,70,50,30.37,30.31,16,5,16,0.00
2013-7-19,73.4,66.1,59.0,58.1,54.3,51.4,85,67,48,30.40,30.34,15,5,15,0.00
2013-7-20,69.1,62.5,57.7,57.6,55.9,54.5,92,80,64,30.37,30.28,14,6,15,0.00
2013-7-21,65.3,60.5,57.2,57.2,54.3,52.5,92,81,65,30.31,30.13,18,7,20,0.00
2013-7-22,63.7,59.7,57.6,59.2,58.0,57.0,98,94,84,30.13,29.98,13,6,13,0.03
2013-7-23,69.6,62.0,59.0,99.9,61.1,58.3,98,95,86,29.98,29.86,16,6,16,0.92
2013-7-24,71.8,65.4,59.7,65.1,61.1,58.5,98,87,67,29.89,29.86,13,3,13,0.01
2013-7-25,65.7,61.9,59.2,63.5,60.6,57.7,98,96,92,29.89,29.81,12,3,13,0.16
2013-7-26,69.1,62.4,57.4,64.0,59.7,55.6,98,91,79,29.83,29.81,12,2,13,0.27
2013-7-27,71.2,62.1,53.4,62.4,56.7,52.0,97,84,56,29.83,29.66,15,4,15,0.01
2013-7-28,62.2,59.8,56.8,60.8,58.6,55.8,98,96,91,29.66,29.51,11,4,12,0.76
2013-7-29,69.3,60.5,53.6,62.8,58.2,53.1,98,92,73,29.72,29.63,19,3,19,0.16
2013-7-30,67.3,59.5,51.8,99.9,54.3,50.2,98,82,57,29.78,29.72,17,1,17,0.05
2013-7-31,68.0,59.6,50.9,58.8,52.4,48.7,97,79,53,29.86,29.78,12,4,13,0.04
2013-8-1,68.9,62.5,57.6,65.5,60.8,56.8,98,94,82,29.78,29.63,17,4,17,0.41
2013-8-2,71.4,64.7,58.3,64.9,56.4,48.7,97,77,50,29.63,29.54,28,8,29,0.00
2013-8-3,65.8,60.5,55.9,54.1,51.6,46.2,90,73,54,29.83,29.54,30,8,30,0.00
2013-8-4,67.1,60.6,51.8,57.4,51.6,47.3,93,73,51,29.86,29.83,20,6,21,0.01
2013-8-5,65.1,58.7,53.1,58.1,52.7,48.0,87,81,72,29.86,29.75,12,2,12,0.00
2013-8-6,65.1,57.9,48.2,53.2,48.7,44.8,90,72,56,29.95,29.83,13,4,13,0.00
2013-8-7,68.9,60.0,52.7,55.4,51.3,48.6,90,74,53,30.04,29.95,10,-2,13,0.00
2013-8-8,69.4,60.9,53.2,58.3,54.1,49.3,94,79,57,30.04,29.92,15,2,15,0.00
2013-8-9,68.7,61.8,56.5,60.1,52.6,46.4,93,73,54,30.07,29.86,21,5,26,0.00
2013-8-10,66.0,59.2,53.2,51.6,48.9,45.7,82,69,57,30.10,29.95,15,5,15,0.00
2013-8-11,64.8,57.6,51.8,54.0,48.5,45.3,93,73,50,29.95,29.83,24,7,26,0.00
2013-8-12,65.3,57.1,50.9,55.8,49.0,44.4,94,76,50,29.98,29.81,24,6,24,0.05
2013-8-13,65.7,57.4,49.3,52.3,46.7,43.7,86,69,50,30.10,29.98,15,5,15,0.00
2013-8-14,69.3,61.1,51.4,58.5,52.9,45.1,89,75,58,30.10,29.92,14,4,17,0.00
2013-8-15,68.2,63.0,59.7,64.9,61.0,58.1,98,93,85,29.92,29.72,15,5,17,0.29
2013-8-16,67.5,60.2,52.7,60.8,55.0,50.5,97,84,64,29.86,29.72,22,5,22,0.00
2013-8-17,65.7,58.7,53.2,62.6,55.3,49.5,97,88,75,29.83,29.36,26,7,26,0.21
2013-8-18,61.2,55.9,52.2,54.3,50.0,46.8,93,81,65,29.78,29.42,24,8,29,0.04
2013-8-19,67.3,57.2,51.1,54.9,49.9,46.0,92,77,57,30.13,29.78,29,7,31,0.00
2013-8-20,67.3,58.7,51.6,57.0,53.6,48.2,95,84,64,30.22,30.13,15,4,15,0.04
2013-8-21,68.2,62.9,57.9,63.0,58.6,48.2,98,87,73,30.13,30.01,19,4,19,0.08
2013-8-22,64.9,60.1,57.0,61.5,57.9,55.8,98,92,82,30.10,30.01,12,5,13,0.00
2013-8-23,67.5,61.0,54.9,62.6,58.6,54.3,98,92,82,30.01,29.86,12,3,12,0.01
2013-8-24,66.4,60.7,57.6,59.4,55.8,53.1,93,84,69,29.95,29.89,10,2,11,0.00
2013-8-25,67.3,60.9,55.6,60.6,57.3,53.6,96,88,76,30.16,29.95,10,2,10,0.00
2013-8-26,69.6,61.3,54.9,62.2,57.2,52.3,98,87,71,30.16,30.07,13,2,13,0.00
2013-8-27,68.7,60.1,53.2,61.0,55.6,51.1,94,86,71,30.19,30.07,13,4,15,0.00
2013-8-28,64.2,58.0,52.5,55.8,51.0,44.2,91,78,64,30.22,30.07,13,5,13,0.00
2013-8-29,65.5,58.7,52.3,59.4,53.8,45.1,96,84,73,30.07,29.98,20,5,20,0.00
2013-8-30,66.2,58.7,50.2,60.8,53.7,40.5,94,84,66,30.04,29.81,26,7,32,0.00
2013-8-31,61.7,53.6,48.0,48.2,42.5,36.1,85,68,45,30.25,30.04,30,8,30,0.00
2013-9-1,58.1,55.0,51.8,55.2,49.9,45.0,94,83,72,30.22,30.07,28,9,33,0.00
2013-9-2,68.0,61.8,56.8,61.0,57.5,55.2,96,86,72,30.22,30.01,30,10,30,0.00
2013-9-3,69.6,62.7,57.2,62.1,56.6,50.9,96,82,58,30.22,30.16,20,6,20,0.00
2013-9-4,66.7,59.6,52.7,57.4,50.8,46.0,95,74,53,30.16,29.89,18,4,18,0.00
2013-9-5,64.2,57.3,51.1,53.1,47.0,39.6,90,71,45,29.89,29.86,16,3,17,0.00
2013-9-6,57.4,51.8,47.3,47.5,45.1,40.1,94,79,54,29.92,29.86,22,5,23,0.25
2013-9-7,57.9,52.0,46.9,53.6,48.3,43.5,98,88,73,29.92,29.75,22,7,22,0.41
2013-9-8,57.9,51.1,43.3,48.9,44.7,40.6,95,80,59,29.98,29.92,11,3,11,0.00
2013-9-9,61.2,52.7,47.3,51.1,47.2,42.4,95,83,53,30.13,29.92,14,2,14,0.00
2013-9-10,61.9,55.4,49.5,47.3,44.9,42.1,85,69,52,30.22,30.13,28,8,28,0.00
2013-9-11,59.5,55.6,51.1,56.5,52.4,46.4,97,89,76,30.22,30.04,8,2,8,0.08
2013-9-12,66.6,59.2,54.9,59.5,56.4,53.8,97,91,72,30.07,29.86,17,4,17,0.05
2013-9-13,56.5,52.9,48.6,54.9,48.1,43.3,94,84,68,30.07,29.95,11,2,11,0.04
2013-9-14,59.2,51.3,44.2,45.5,42.8,39.9,91,74,52,30.04,29.89,13,4,13,0.00
2013-9-15,57.6,50.3,42.4,57.0,46.3,39.2,98,87,67,29.89,29.16,39,11,40,0.49
2013-9-16,54.3,46.2,39.7,46.0,41.4,38.1,95,84,65,29.30,29.24,29,8,30,0.00
2013-9-17,55.0,48.4,43.5,47.3,42.3,39.4,88,80,65,29.36,29.24,19,6,20,0.00
2013-9-18,55.2,47.4,40.8,48.0,41.2,38.8,96,80,58,29.69,29.36,31,7,31,0.00
2013-9-19,51.4,47.5,43.7,50.4,46.4,41.0,98,96,87,29.75,29.51,13,4,13,0.37
2013-9-20,58.3,51.4,43.7,53.4,48.0,43.2,98,89,72,30.01,29.75,17,5,17,0.00
2013-9-21,60.1,55.2,49.6,58.3,53.1,47.8,98,93,89,30.07,30.01,15,4,17,0.00
2013-9-22,65.7,60.8,56.3,60.4,57.4,54.5,98,89,72,30.25,30.07,26,7,26,0.00
2013-9-23,63.5,57.4,52.3,59.7,55.5,51.6,98,94,82,30.25,30.10,10,3,11,0.00
2013-9-24,60.3,57.1,55.0,58.3,55.8,54.5,98,96,91,30.10,29.95,10,3,10,0.00
2013-9-25,55.4,52.6,46.2,54.9,50.2,43.7,98,92,72,30.04,29.89,17,6,17,0.00
2013-9-26,56.3,50.0,42.3,50.7,46.1,40.6,97,87,65,30.10,30.04,12,-4,13,0.00
2013-9-27,59.5,54.6,51.3,56.8,53.1,50.4,98,95,89,30.04,29.92,6,1,6,0.01
2013-9-28,64.2,56.2,50.5,58.1,52.2,49.5,98,87,64,29.92,29.86,10,2,11,0.00
2013-9-29,59.2,53.0,47.8,53.1,49.4,46.8,98,88,69,29.92,29.89,18,6,20,0.00
2013-9-30,57.7,53.9,51.3,52.0,49.9,46.2,97,87,74,29.92,29.83,21,8,23,0.00
2013-10-1,58.1,53.0,48.9,49.1,46.1,41.7,91,78,64,29.92,29.83,20,8,23,0.00
2013-10-2,57.2,54.3,52.2,54.7,51.8,47.8,98,91,84,29.86,29.78,19,6,20,0.24
2013-10-3,62.1,56.9,54.3,61.3,56.2,53.8,98,97,92,29.78,29.54,12,5,12,0.57
2013-10-4,61.0,56.7,51.6,60.1,55.8,51.1,98,97,94,29.81,29.54,14,3,14,0.13
2013-10-5,60.4,53.9,50.2,59.9,52.0,49.6,98,93,83,30.07,29.81,14,4,14,0.00
2013-10-6,60.4,57.2,52.0,59.2,56.2,50.9,98,97,93,30.07,30.01,17,4,18,0.02
2013-10-7,64.0,60.1,57.9,61.0,58.0,55.9,98,93,84,30.04,29.95,21,8,22,0.05
2013-10-8,59.5,55.8,50.4,58.1,53.2,46.2,98,91,80,30.10,29.95,22,7,22,0.04
2013-10-9,50.5,47.6,43.0,47.7,39.0,29.1,97,74,52,30.10,29.86,36,11,38,0.05
2013-10-10,50.2,44.7,41.2,36.1,32.9,29.1,76,63,51,30.40,30.07,29,9,37,0.00
2013-10-11,60.4,46.4,42.1,40.3,37.6,32.4,76,71,65,30.48,30.40,17,7,18,0.00
2013-10-12,53.6,49.0,45.0,48.0,44.0,39.0,96,83,67,30.45,30.25,20,7,20,0.00
2013-10-13,53.1,48.9,45.3,49.5,46.1,42.3,98,90,73,30.25,30.04,21,8,23,0.15
2013-10-14,51.6,49.3,46.9,51.1,48.5,44.1,98,97,85,30.04,29.92,13,5,13,0.11
2013-10-15,51.6,48.2,44.8,48.7,47.0,44.2,98,95,86,29.98,29.89,12,3,12,0.00
2013-10-16,51.4,46.8,40.5,49.5,45.9,39.9,98,97,91,29.95,29.57,15,5,16,0.63
2013-10-17,50.4,47.6,45.5,49.8,47.1,45.0,98,98,98,29.95,29.60,9,3,10,0.25
2013-10-18,52.2,49.4,47.3,51.4,48.7,46.8,98,98,95,29.98,29.72,18,6,18,0.40
2013-10-19,54.0,52.4,50.5,53.4,51.8,49.8,98,98,97,29.72,29.45,17,4,17,0.89
2013-10-20,55.8,51.5,47.8,54.9,50.7,47.3,98,97,95,29.48,29.39,11,3,11,0.12
2013-10-21,54.0,51.8,48.9,52.5,51.0,46.9,98,97,91,29.51,29.27,15,4,15,0.38
2013-10-22,56.7,55.0,51.6,56.1,54.2,48.9,98,97,95,29.27,29.10,15,4,15,0.64
2013-10-23,54.3,50.7,43.5,53.8,48.4,39.6,98,92,75,29.51,28.98,29,6,29,0.29
2013-10-24,51.3,45.8,42.8,48.0,43.8,41.5,98,93,82,29.89,29.51,16,4,22,0.00
2013-10-25,55.6,50.6,46.4,54.7,50.0,45.9,98,98,96,29.83,29.30,18,6,18,0.40
2013-10-26,53.1,50.5,45.3,52.5,49.0,44.6,98,95,82,29.42,29.13,20,6,23,0.08
2013-10-27,50.9,47.2,43.9,49.3,46.1,43.3,98,96,87,29.16,28.80,33,9,37,0.35
2013-10-28,50.5,46.9,42.8,49.1,45.8,41.7,98,96,86,29.30,28.86,18,7,18,0.00
2013-10-29,48.0,43.1,39.7,43.7,40.3,37.6,98,90,74,29.83,29.30,27,7,27,0.00
2013-10-30,51.1,44.1,36.9,50.0,42.8,35.8,98,95,85,29.89,29.57,23,6,23,0.04
2013-10-31,50.5,44.3,40.1,47.3,42.7,39.4,98,94,80,29.78,29.57,27,9,30,0.15
2013-11-1,47.7,42.7,37.4,46.0,41.2,36.9,98,94,82,29.57,29.51,25,8,26,0.03
2013-11-2,45.1,40.0,34.5,44.6,39.5,34.0,98,98,86,29.54,28.83,23,5,23,0.24
2013-11-3,45.9,40.9,34.3,40.5,36.1,32.7,97,83,66,29.24,28.89,31,10,33,0.00
2013-11-4,44.1,36.8,33.3,38.8,34.0,30.6,97,90,73,29.33,29.18,13,4,13,0.00
2013-11-5,39.7,34.3,28.9,39.2,33.4,27.7,98,96,90,29.30,29.13,22,3,22,0.03
2013-11-6,41.5,37.2,33.8,41.0,36.7,33.3,98,98,98,29.33,29.18,14,4,14,0.03
2013-11-7,44.2,39.9,35.1,43.0,38.6,34.5,98,95,85,29.42,29.33,34,10,34,0.29
2013-11-8,45.9,40.2,35.1,45.3,39.5,34.5,98,97,92,29.51,29.42,21,5,21,0.03
2013-11-9,40.3,35.7,32.2,39.7,35.1,31.6,98,98,98,29.60,29.45,13,4,13,0.00
2013-11-10,41.5,35.4,31.1,38.7,33.7,30.6,98,94,81,30.07,29.60,11,3,11,0.00
2013-11-11,50.2,43.1,34.9,49.6,42.5,34.2,98,98,97,29.98,29.78,18,4,21,0.15
2013-11-12,45.0,41.3,38.7,44.2,40.2,37.9,98,96,87,30.31,29.98,31,7,31,0.03
2013-11-13,46.2,42.8,38.7,45.5,41.6,38.1,98,96,82,30.34,29.72,26,10,27,0.11
2013-11-14,44.8,41.0,36.9,44.2,34.6,28.4,98,79,56,30.43,29.72,27,9,27,0.00
2013-11-15,49.1,45.0,38.3,48.6,43.5,33.1,98,95,80,30.43,30.28,30,9,30,0.00
2013-11-16,51.1,48.4,41.5,49.6,46.9,39.7,98,95,89,30.31,30.16,29,11,29,0.00
2013-11-17,41.7,39.0,34.9,41.2,38.2,34.2,98,97,93,30.31,29.89,10,2,12,0.04
2013-11-18,44.6,37.7,31.3,41.9,36.3,30.2,98,95,79,29.89,29.72,20,6,20,0.00
2013-11-19,41.2,32.7,28.2,37.6,29.0,24.6,98,87,68,29.95,29.54,30,8,30,0.10
2013-11-20,41.5,38.6,34.9,40.8,33.9,28.0,98,84,67,29.75,29.33,39,15,39,0.12
2013-11-21,38.8,35.5,31.3,28.8,26.8,24.1,76,71,61,30.10,29.75,27,7,30,0.00
2013-11-22,34.2,31.1,28.0,31.3,26.7,23.2,92,84,74,30.22,30.10,9,4,9,0.00
2013-11-23,40.8,35.9,33.1,37.9,34.0,31.1,97,93,87,30.40,30.22,8,3,8,0.00
2013-11-24,41.5,36.9,32.2,39.9,35.4,30.4,98,94,87,30.63,30.40,6,1,6,0.00
2013-11-25,36.7,33.0,29.7,36.1,32.2,28.6,98,97,93,30.66,30.60,8,2,8,0.00
2013-11-26,46.9,42.3,33.6,46.2,41.7,33.1,98,98,97,30.63,30.45,21,8,24,0.05
2013-11-27,50.0,47.1,44.6,49.3,46.4,44.1,98,97,96,30.48,30.40,18,9,19,0.00
2013-11-28,46.4,39.4,36.7,43.9,38.8,36.1,98,98,98,30.57,30.28,14,3,16,0.01
2013-11-29,45.0,40.8,37.8,44.4,37.1,30.4,98,87,66,30.28,30.01,27,12,31,0.15
2013-11-30,42.8,39.7,35.6,42.3,35.9,28.6,98,87,66,30.34,30.25,18,7,19,0.00
2013-12-1,43.9,41.2,37.9,43.3,40.6,37.4,98,98,98,30.54,30.31,15,4,15,0.00
2013-12-2,44.4,41.7,37.9,43.9,41.0,37.4,98,97,96,30.54,30.28,19,6,21,0.00
2013-12-3,47.3,45.1,38.5,46.8,44.5,37.0,98,98,94,30.28,30.07,19,8,19,0.09
2013-12-4,40.1,36.5,33.6,39.4,35.4,32.5,98,96,88,30.22,29.98,28,9,29,0.00
2013-12-5,45.9,37.4,29.7,45.0,32.9,21.7,98,84,64,30.07,29.30,67,17,67,0.40
2013-12-6,33.3,31.5,28.9,29.3,25.3,20.5,89,78,65,30.28,30.04,20,4,20,0.00
2013-12-7,46.4,38.0,31.6,45.9,37.0,29.3,98,96,89,30.19,29.86,23,6,26,0.01
2013-12-8,51.6,48.7,43.7,50.7,48.0,43.2,98,98,96,29.89,29.81,28,13,29,0.20
2013-12-9,51.6,49.5,46.8,51.1,48.5,44.6,98,96,91,30.13,29.89,31,11,31,0.04
2013-12-10,50.9,48.3,46.0,49.3,46.2,42.3,98,93,86,30.16,30.07,25,8,26,0.00
2013-12-11,50.5,46.6,39.2,49.6,44.8,36.3,97,94,87,30.19,29.98,24,-1,24,0.00
2013-12-12,52.0,48.8,40.6,51.3,47.8,38.3,98,96,86,29.98,29.86,23,6,24,0.35
2013-12-13,53.6,49.7,41.7,52.3,47.8,38.5,98,93,86,29.89,29.66,28,9,28,0.03
2013-12-14,49.6,44.4,37.8,49.1,42.2,34.5,98,92,85,29.86,29.39,36,13,38,0.08
2013-12-15,46.9,42.2,38.8,45.3,40.1,35.4,98,92,83,29.81,29.48,32,10,32,0.32
2013-12-16,45.5,40.3,37.2,45.0,38.3,35.1,98,93,88,29.89,29.48,32,11,32,0.12
2013-12-17,42.4,38.4,35.2,39.2,35.9,34.0,98,91,77,30.01,29.72,23,9,25,0.00
2013-12-18,50.2,45.9,41.7,48.4,42.4,34.0,97,88,71,29.72,28.74,34,13,34,0.10
2013-12-19,44.6,37.2,35.2,37.6,33.8,31.8,95,88,71,29.42,28.77,37,15,39,0.12
2013-12-20,49.1,41.7,35.6,48.4,40.7,34.0,98,96,91,29.69,29.30,31,12,33,0.25
2013-12-21,47.7,42.8,37.8,45.7,39.8,36.5,96,89,81,29.45,29.21,28,12,32,0.20
2013-12-22,40.3,37.0,34.0,38.1,35.4,32.5,98,94,87,29.45,29.24,32,13,34,0.24
2013-12-23,47.7,39.4,34.3,46.6,38.2,32.7,98,95,91,29.45,28.30,29,10,31,0.20
2013-12-24,47.5,39.3,36.1,45.7,33.3,27.5,95,79,61,28.39,28.21,45,18,45,0.03
2013-12-25,41.5,39.3,37.6,37.9,36.4,34.3,96,89,82,29.01,28.39,40,16,44,0.09
2013-12-26,38.8,37.0,34.5,37.9,35.7,33.6,98,95,85,29.24,28.68,35,7,35,0.00
2013-12-27,44.2,42.0,37.4,43.3,40.5,34.9,98,94,87,28.68,28.15,40,18,44,0.20
2013-12-28,43.0,39.2,37.0,40.1,37.7,36.1,97,94,89,29.42,28.65,33,13,33,0.07
2013-12-29,43.5,37.7,34.5,42.3,36.8,34.0,98,97,88,29.75,29.42,22,6,22,0.02
2013-12-30,47.3,41.3,36.0,46.8,40.8,35.4,98,98,96,29.57,29.24,31,8,31,0.59
2013-12-31,43.0,39.4,35.2,42.3,38.1,34.7,98,95,87,29.57,29.21,28,7,28,0.04
2014-1-1,44.6,39.7,36.3,44.1,38.9,34.7,98,97,92,29.27,28.65,24,7,26,0.22
2014-1-2,44.6,41.0,39.0,44.1,40.0,36.9,98,96,91,29.10,28.65,22,10,23,0.04